Flag for U.S.A. Weather past 2 weeks in Redmond, Washington, U.S.A.

Now
59 °F

Overcast.


Feels Like: 58 °F
Forecast: 54 / 69 °F
Wind: 7 mph from North

Location: Seattle Boeing Field

Current Time: May 25, 2015 at 1:22:20 PM

Latest Report: May 25, 2015 at 12:53 PM


Visibility: 10 mi

Pressure: 30.03 "Hg

Humidity: 64%

Dew point: 47 °F

Location of RedmondLocation

Historic Weather in Redmond — Graph

°F

Redmond temperature yesterday

Maximum temperature yesterday: 65 °F (at 1:53 PM)
Minimum temperature yesterday: 56 °F (at 4:53 AM)
Average temperature yesterday: 60 °F

Past Weeks' High & Low Weather Summary

 TemperatureHumidityPressure
High80 °F (May 21, 4:53 PM)86% (May 13, 11:53 PM)30.19 "Hg (May 13, 11:53 PM)
Low53 °F (May 13, 10:53 PM)35% (May 18, 5:53 PM)29.80 "Hg (May 21, 6:53 PM)
Average60 °F67%29.98 "Hg
* Reported May 10 11:53 AM — May 25 11:53 AM, Redmond, Weather by CustomWeather, © 2015

Note: Actual official high and low records may vary slightly from our data, if they occured in-between our weather recording intervals... More about our weather records

Advertising

Redmond weather history for previous 24 hours

 ConditionsComfort  
Time TempWeatherWind HumidityBarometerVisibility
11:53 AM
Mon, May 25
59 °FOvercast.6 mph67%30.02 "Hg10 mi
10:53 AM58 °FOvercast.9 mph67%30.02 "Hg10 mi
9:53 AM58 °FOvercast.9 mph67%30.02 "Hg10 mi
8:53 AM57 °FOvercast.9 mph69%30.01 "Hg10 mi
7:53 AM56 °FOvercast.7 mph75%30.01 "Hg10 mi
6:53 AM56 °FMostly cloudy.3 mph75%30.01 "Hg10 mi
5:53 AM56 °FMostly cloudy.6 mph72%30.00 "Hg10 mi
4:53 AM56 °FMostly cloudy.7 mph72%30.01 "Hg10 mi
3:53 AM56 °FMostly cloudy.3 mph75%30.01 "Hg10 mi
2:53 AM55 °FMostly cloudy.3 mph77%30.01 "Hg10 mi
1:53 AM57 °FOvercast.5 mph69%30.01 "Hg10 mi
12:53 AM57 °FOvercast.5 mph72%30.02 "Hg10 mi
11:53 PM
Sun, May 24
58 °FOvercast.3 mph72%30.02 "Hg10 mi
10:53 PM60 °FOvercast.5 mph67%30.01 "Hg10 mi
9:53 PM61 °FOvercast.3 mph65%30.01 "Hg10 mi
8:53 PM61 °FPartly sunny.5 mph65%30.01 "Hg10 mi
7:53 PM62 °FBroken clouds.5 mph65%30.02 "Hg10 mi
6:53 PM63 °FBroken clouds.8 mph63%30.02 "Hg10 mi
5:53 PM65 °FPartly sunny.6 mph61%30.03 "Hg10 mi
4:53 PM65 °FBroken clouds.5 mph59%30.04 "Hg10 mi
3:53 PM65 °FBroken clouds.7 mph59%30.06 "Hg10 mi
2:53 PM65 °FMostly cloudy.3 mph59%30.07 "Hg10 mi
1:53 PM65 °FPartly sunny.8 mph59%30.09 "Hg10 mi
Weather by CustomWeather, © 2015

See weather overviewHow to use our weather pages